User: anonymous   Login
Location: Demmingen
(48.6757°N, 10.4375°E)
Time: 06:27:57
(UTC+00:00)
Language:

Cosmos 1300 Rocket - Orbit

View from above orbital plane
View from above orbital plane
View from above satellite
View from above satellite

Ground track
Ground track

The orbit data is extracted from the following two-line orbital elements,

1 12786U 81082B   24201.94028671  .00000943  00000-0  10495-3 0  9997
2 12786  82.4868  45.8276 0016789 347.7183  12.3622 14.85998498298053
Epoch (UTC): 19 July 2024 22:34:00
Eccentricity: 0.0016789
inclination: 82.4868°
perigee height: 599 km
apogee height: 622 km
right ascension of ascending node: 45.8276°
argument of perigee: 347.7183°
revolutions per day: 14.85998498
mean anomaly at epoch: 12.3622°
orbit number at epoch: 29805

The dashed part of the orbit path shows where the satellite is in the earth's shadow,  

DLR